[[{"header":{"parameterUnit":"m.s-1","parameterCategory":2,"la1":30.2991,"la2":30.254,"lo1":-89.0895,"lo2":-89.0444,"dy":0.0017,"dx":0.0017,"nx":28,"ny":28,"refTime":"2024-07-11T09:00:00:Z","depth":"0","parameterNumber":2,"parameterNumberName":"U-component_of_CURRENTS"},"data":[0,0,0,0,0,0,0,0,0,0,0,0,0,0,0,0,0,0,0,0,0,0,0,0,0,0,0,0,0,0,0,0,0,0,0,0,0,0,0,0,0,0,0,0,0,0,0,0,0,0,0,0,0,0,0,0,0,0,-0.2026,-0.2025,0,-0.1985,-0.1984,-0.1984,-0.1931,-0.193,-0.1929,-0.1928,-0.1886,-0.1886,-0.1886,0,0,0,0,0,0,0,0,0,0,0,0,0,-0.2071,-0.207,-0.2026,-0.2025,-0.2025,-0.1985,-0.1984,-0.1984,-0.1931,-0.193,-0.1929,-0.1928,-0.1886,-0.1886,-0.1886,0,0,0,0,0,0,0,0,0,0,0,0,0,-0.2043,-0.207,-0.2026,-0.1994,-0.199,-0.1985,-0.1984,-0.1984,-0.1931,-0.193,-0.1929,-0.1927,-0.1886,-0.1886,-0.1886,-0.1909,0,0,-0.1884,-0.1884,0,0,0,0,0,0,0,0,-0.2044,-0.2041,-0.1999,-0.1996,-0.1992,-0.1962,-0.1985,-0.1959,-0.1932,-0.1954,-0.1928,-0.1927,-0.1912,-0.191,-0.1905,-0.1907,-0.1906,-0.1884,-0.1884,-0.1884,-0.1884,0,0,0,0,0,0,0,-0.2046,-0.2043,-0.201,-0.1998,-0.1994,-0.1985,-0.198,-0.198,-0.1941,-0.1952,-0.1948,-0.1943,-0.191,-0.1906,-0.1904,-0.1905,-0.1884,-0.1884,-0.1883,-0.1883,-0.1895,-0.1896,0,0,0,0,0,0,-0.2052,-0.2045,-0.2011,-0.2009,-0.2015,-0.1985,-0.1979,-0.1973,-0.1941,-0.1935,-0.1945,-0.1941,-0.1907,-0.1904,-0.1902,-0.1914,-0.1884,-0.1883,-0.1883,-0.1895,-0.1896,-0.1896,0,0,0,0,0,0,-0.2053,-0.2049,-0.2013,-0.2026,-0.202,-0.1986,-0.1979,-0.1973,-0.1967,-0.1935,-0.1929,-0.1946,-0.1906,-0.1903,-0.1903,-0.1913,-0.1883,-0.1883,-0.1894,-0.1895,-0.1896,-0.1948,0,0,0,0,0,0,-0.2054,-0.205,-0.2052,-0.2026,-0.202,-0.2018,-0.198,-0.1973,-0.1966,-0.1961,-0.1935,-0.1929,-0.1905,-0.1904,-0.1903,-0.1911,-0.1882,-0.1893,-0.1895,-0.1896,-0.1945,-0.195,-0.1955,0,0,0,0,0,-0.2056,-0.2073,-0.2053,-0.2049,-0.2022,-0.2019,-0.2016,-0.1987,-0.1968,-0.1975,-0.1952,-0.193,-0.1909,-0.1905,-0.1903,-0.1912,-0.1893,-0.1894,-0.1895,-0.1943,-0.1949,-0.1955,0,0,0,0,0,0,-0.2112,-0.2068,-0.2046,-0.2052,-0.2037,-0.201,-0.2017,-0.1996,-0.1984,-0.198,-0.1944,-0.1939,-0.1939,-0.1924,-0.1919,-0.1917,-0.1895,-0.1896,-0.1932,-0.1938,-0.1942,-0.1952,-0.1882,0,0,0,0,0,-0.2121,-0.211,-0.2078,-0.2086,-0.2078,-0.2049,-0.2045,-0.2026,-0.201,-0.2002,-0.1981,-0.196,-0.1946,-0.194,-0.1928,-0.1937,-0.1927,-0.1939,-0.1943,-0.1947,-0.1954,-0.1941,-0.1946,-0.1901,-0.1901,-0.1901,0,0,-0.2147,-0.2121,-0.2117,-0.2095,-0.2079,-0.208,-0.2043,-0.2046,-0.2045,-0.2003,-0.2003,-0.1981,-0.1952,-0.1953,-0.1952,-0.194,-0.1959,-0.1949,-0.1953,-0.1957,-0.1943,-0.1948,-0.1952,-0.1901,-0.1901,-0.1901,0,0,-0.2196,-0.2169,-0.2174,-0.2159,-0.2138,-0.2118,-0.2121,-0.2097,-0.2083,-0.2083,-0.2046,-0.2034,-0.2017,-0.1995,-0.1981,-0.2009,-0.1985,-0.2001,-0.2033,-0.2021,-0.2025,-0.2028,-0.204,-0.2044,-0.2003,-0.2003,-0.2003,0,-0.2235,-0.2223,-0.2182,-0.2184,-0.2176,-0.2137,-0.2149,-0.2135,-0.2115,-0.2106,-0.2091,-0.2056,-0.2036,-0.2024,-0.2029,-0.202,-0.2015,-0.2014,-0.2028,-0.203,-0.2032,-0.2044,-0.2048,-0.2005,-0.2005,-0.2005,-0.2004,0,-0.2273,-0.2268,-0.2276,-0.2251,-0.2243,-0.2251,-0.2217,-0.2213,-0.2189,-0.2167,-0.2153,-0.2123,-0.2098,-0.209,-0.2069,-0.2071,-0.2064,-0.2036,-0.2015,-0.204,-0.2051,-0.2054,-0.2009,-0.2008,-0.2007,-0.2007,0,0,-0.2358,-0.2311,-0.2315,-0.2302,-0.2274,-0.2272,-0.2272,-0.2254,-0.2247,-0.2226,-0.2215,-0.2192,-0.2167,-0.215,-0.2119,-0.2109,-0.2129,-0.2084,-0.2082,-0.21,-0.2121,-0.2119,-0.2121,-0.2098,-0.2098,-0.2098,-0.213,0,-0.2405,-0.241,-0.2374,-0.2385,-0.2384,-0.234,-0.2338,-0.2316,-0.229,-0.2273,-0.2235,-0.2216,-0.219,-0.2177,-0.2166,-0.2127,-0.2134,-0.2124,-0.209,-0.209,-0.2087,-0.2123,-0.2163,-0.2193,-0.2132,-0.2132,-0.2133,0,-0.2453,-0.2443,-0.2458,-0.2424,-0.242,-0.2423,-0.2397,-0.2388,-0.2351,-0.233,-0.2304,-0.2266,-0.2247,-0.222,-0.219,-0.2182,-0.2167,-0.2143,-0.2143,-0.2123,-0.2092,-0.2153,-0.22,-0.2204,-0.2136,-0.2136,-0.2136,0,-0.2511,-0.2502,-0.2508,-0.25,-0.2464,-0.2463,-0.2446,-0.2412,-0.2397,-0.2365,-0.2353,-0.2316,-0.2298,-0.2265,-0.2219,-0.2205,-0.2187,-0.2158,-0.2152,-0.2152,-0.2171,-0.2172,-0.2219,-0.2158,-0.2158,-0.2158,-0.2157,0,-0.2562,-0.257,-0.2535,-0.2537,-0.2547,-0.2505,-0.2505,-0.2483,-0.2448,-0.2441,-0.2387,-0.2377,-0.2307,-0.2278,-0.224,-0.2208,-0.2208,-0.2173,-0.216,-0.2192,-0.2194,-0.2184,-0.217,-0.2159,-0.2158,-0.2158,-0.2158,0,-0.2624,-0.2599,-0.2606,-0.2578,-0.2572,-0.258,-0.2542,-0.254,-0.2501,-0.2492,-0.2484,-0.2428,-0.239,-0.2327,-0.2275,-0.2241,-0.2189,-0.2198,-0.2253,-0.2245,-0.2232,-0.2218,-0.213,-0.2122,-0.2201,-0.2201,-0.2201,0,-0.2654,-0.2663,-0.2646,-0.2654,-0.2645,-0.2638,-0.2636,-0.2582,-0.2574,-0.2527,-0.2533,-0.2486,-0.246,-0.2381,-0.2319,-0.2267,-0.2206,-0.2262,-0.2238,-0.2254,-0.2228,-0.212,-0.2113,-0.2296,-0.2297,-0.2298,-0.2299,0,-0.2721,-0.2715,-0.2721,-0.2722,-0.2725,-0.2706,-0.2692,-0.2685,-0.263,-0.2617,-0.2591,-0.2564,-0.2505,-0.2459,-0.2381,-0.2335,-0.2237,-0.2274,-0.2274,-0.2301,-0.2202,-0.2182,-0.2267,-0.2305,-0.2304,-0.2304,-0.2304,-0.2303,-0.2782,-0.2795,-0.2791,-0.2785,-0.2783,-0.275,-0.2722,-0.2718,-0.2687,-0.2655,-0.2641,-0.2628,-0.2588,-0.2481,-0.2442,-0.2392,-0.2282,-0.2336,-0.232,-0.2209,-0.2193,-0.2301,-0.2322,-0.2322,-0.2321,-0.2321,-0.2321,0,-0.2841,-0.2834,-0.2845,-0.2818,-0.28,-0.2777,-0.2739,-0.2694,-0.2663,-0.2697,-0.2672,-0.2704,-0.2669,-0.2631,-0.2568,-0.2471,-0.2388,-0.2388,-0.2281,-0.2274,-0.2384,-0.2383,-0.2438,-0.2438,-0.2438,-0.2438,-0.2438,-0.2438,-0.2873,-0.2881,-0.2854,-0.2815,-0.2793,-0.272,-0.2676,-0.2627,-0.2615,-0.2621,-0.2689,-0.2745,-0.264,-0.2688,-0.262,-0.2535,-0.2414,-0.2308,-0.2264,-0.2401,-0.2396,-0.239,-0.2388,-0.2443,-0.2443,-0.2144,-0.2143,-0.2141]},{"header":{"parameterUnit":"m.s-1","parameterCategory":2,"la1":30.2991,"la2":30.254,"lo1":-89.0895,"lo2":-89.0444,"dy":0.0017,"dx":0.0017,"nx":28,"ny":28,"refTime":"2024-07-11T09:00:00:Z","depth":"0","parameterNumber":3,"parameterNumberName":"V-component_of_CURRENTS"},"data":[0,0,0,0,0,0,0,0,0,0,0,0,0,0,0,0,0,0,0,0,0,0,0,0,0,0,0,0,0,0,0,0,0,0,0,0,0,0,0,0,0,0,0,0,0,0,0,0,0,0,0,0,0,0,0,0,0,0,-0.0555,-0.0555,0,-0.0575,-0.0575,-0.0576,-0.0599,-0.06,-0.06,-0.06,-0.0667,-0.0669,-0.067,0,0,0,0,0,0,0,0,0,0,0,0,0,-0.0564,-0.0564,-0.0555,-0.0555,-0.0555,-0.0575,-0.0575,-0.0576,-0.0599,-0.06,-0.06,-0.06,-0.0667,-0.0668,-0.067,0,0,0,0,0,0,0,0,0,0,0,0,0,-0.057,-0.0564,-0.0555,-0.0569,-0.057,-0.0575,-0.0576,-0.0576,-0.0599,-0.06,-0.06,-0.0601,-0.0666,-0.0668,-0.067,-0.0675,0,0,-0.0677,-0.0678,0,0,0,0,0,0,0,0,-0.057,-0.057,-0.0567,-0.0568,-0.0569,-0.0585,-0.0603,-0.0611,-0.0599,-0.0589,-0.06,-0.0601,-0.0643,-0.0647,-0.065,-0.0678,-0.0681,-0.0678,-0.0679,-0.068,-0.068,0,0,0,0,0,0,0,-0.0569,-0.0569,-0.0563,-0.0567,-0.0568,-0.0584,-0.0585,-0.0605,-0.0614,-0.059,-0.0591,-0.0593,-0.0644,-0.0648,-0.0652,-0.0682,-0.0677,-0.0679,-0.0681,-0.0682,-0.0741,-0.0741,0,0,0,0,0,0,-0.0564,-0.0569,-0.0563,-0.0564,-0.057,-0.0583,-0.0585,-0.058,-0.0613,-0.0618,-0.0592,-0.0594,-0.0644,-0.0649,-0.0655,-0.0671,-0.068,-0.0682,-0.0683,-0.0741,-0.0741,-0.0741,0,0,0,0,0,0,-0.0564,-0.0563,-0.0562,-0.0567,-0.0568,-0.0582,-0.0577,-0.058,-0.0584,-0.0615,-0.0621,-0.0594,-0.0645,-0.0652,-0.0673,-0.0674,-0.0683,-0.0685,-0.0741,-0.0741,-0.0741,-0.0699,0,0,0,0,0,0,-0.0564,-0.0562,-0.0557,-0.0566,-0.0567,-0.0563,-0.0577,-0.058,-0.0584,-0.0586,-0.0618,-0.0624,-0.0645,-0.0669,-0.0675,-0.0677,-0.0687,-0.074,-0.0741,-0.0741,-0.07,-0.0697,-0.0696,0,0,0,0,0,-0.0564,-0.0553,-0.0557,-0.0556,-0.0559,-0.0562,-0.0564,-0.0577,-0.0584,-0.0583,-0.0606,-0.0623,-0.0677,-0.0671,-0.0678,-0.068,-0.074,-0.0741,-0.0741,-0.0701,-0.0698,-0.0696,0,0,0,0,0,0,-0.055,-0.0555,-0.0559,-0.0549,-0.0555,-0.0566,-0.0565,-0.0574,-0.059,-0.0593,-0.0623,-0.0631,-0.0651,-0.0672,-0.0665,-0.07,-0.0713,-0.0715,-0.068,-0.0677,-0.0675,-0.0672,-0.0689,0,0,0,0,0,-0.0545,-0.054,-0.0547,-0.0539,-0.054,-0.0552,-0.0554,-0.0563,-0.0577,-0.0584,-0.0606,-0.0633,-0.0657,-0.0672,-0.0695,-0.0711,-0.0725,-0.072,-0.0717,-0.0715,-0.0718,-0.0741,-0.0741,-0.0743,-0.0743,-0.0743,0,0,-0.0537,-0.0539,-0.0536,-0.0536,-0.0541,-0.0541,-0.0554,-0.0555,-0.056,-0.059,-0.0602,-0.0624,-0.066,-0.0678,-0.069,-0.0697,-0.0718,-0.0716,-0.0714,-0.0718,-0.0742,-0.0742,-0.0741,-0.0743,-0.0743,-0.0743,0,0,-0.0519,-0.0519,-0.0511,-0.0515,-0.052,-0.053,-0.0529,-0.0539,-0.0548,-0.0561,-0.0586,-0.0606,-0.0641,-0.0665,-0.0684,-0.0685,-0.0705,-0.0695,-0.0683,-0.0705,-0.0705,-0.0705,-0.0701,-0.0701,-0.0696,-0.0696,-0.0696,0,-0.0509,-0.0502,-0.0509,-0.0505,-0.0508,-0.0523,-0.052,-0.053,-0.0547,-0.0557,-0.0561,-0.0612,-0.0636,-0.0667,-0.0667,-0.068,-0.0688,-0.0686,-0.0701,-0.0701,-0.0702,-0.0699,-0.0699,-0.0694,-0.0694,-0.0694,-0.0694,0,-0.0491,-0.0486,-0.0481,-0.0483,-0.0487,-0.0485,-0.0501,-0.0508,-0.0521,-0.0535,-0.0561,-0.059,-0.0622,-0.0632,-0.0649,-0.0671,-0.0672,-0.0691,-0.0703,-0.0699,-0.0696,-0.0697,-0.0691,-0.0691,-0.0692,-0.0693,0,0,-0.0466,-0.0468,-0.0467,-0.0469,-0.0477,-0.048,-0.0488,-0.0504,-0.0515,-0.0531,-0.0546,-0.0581,-0.0595,-0.0617,-0.0641,-0.066,-0.0661,-0.0675,-0.0677,-0.0663,-0.0691,-0.0654,-0.0652,-0.0684,-0.0684,-0.0685,-0.0678,0,-0.0452,-0.0444,-0.0449,-0.0446,-0.0446,-0.0462,-0.047,-0.0488,-0.0506,-0.0524,-0.0554,-0.0578,-0.0591,-0.0606,-0.0624,-0.0661,-0.0667,-0.066,-0.0705,-0.0706,-0.0667,-0.0654,-0.0662,-0.0654,-0.0679,-0.068,-0.068,0,-0.0437,-0.0436,-0.043,-0.0437,-0.0438,-0.0439,-0.0462,-0.0471,-0.0501,-0.0514,-0.0539,-0.0563,-0.0593,-0.0603,-0.0648,-0.0643,-0.066,-0.0681,-0.0682,-0.0667,-0.0672,-0.0668,-0.0656,-0.0613,-0.0682,-0.0682,-0.0682,0,-0.0432,-0.0425,-0.0424,-0.0425,-0.0433,-0.0436,-0.0444,-0.0469,-0.0486,-0.0511,-0.0526,-0.0558,-0.0581,-0.0611,-0.0641,-0.065,-0.0682,-0.0703,-0.0679,-0.0676,-0.0702,-0.07,-0.065,-0.0726,-0.0726,-0.0726,-0.0726,0,-0.0424,-0.0422,-0.0421,-0.0421,-0.0425,-0.0429,-0.0442,-0.0455,-0.0479,-0.0503,-0.0521,-0.0545,-0.0587,-0.061,-0.0634,-0.0649,-0.0673,-0.067,-0.0675,-0.0685,-0.0681,-0.0661,-0.0632,-0.0726,-0.0726,-0.0726,-0.0726,0,-0.0426,-0.0422,-0.0423,-0.0424,-0.0425,-0.043,-0.0444,-0.0463,-0.0473,-0.0504,-0.0513,-0.0543,-0.0563,-0.0585,-0.063,-0.0638,-0.0636,-0.0657,-0.0646,-0.0649,-0.0584,-0.0553,-0.0496,-0.0515,-0.0634,-0.0633,-0.0633,0,-0.0429,-0.043,-0.043,-0.0438,-0.0439,-0.0444,-0.046,-0.0466,-0.0488,-0.0509,-0.053,-0.0542,-0.0564,-0.0583,-0.0605,-0.0618,-0.0593,-0.0612,-0.0633,-0.0569,-0.0538,-0.0509,-0.0528,-0.0647,-0.0646,-0.0646,-0.0645,0,-0.0445,-0.0445,-0.0451,-0.0466,-0.0476,-0.0483,-0.0497,-0.0512,-0.0526,-0.0545,-0.0571,-0.0582,-0.0584,-0.0604,-0.059,-0.0595,-0.0573,-0.0601,-0.0557,-0.0552,-0.0497,-0.0522,-0.064,-0.0641,-0.0641,-0.0642,-0.0642,-0.0642,-0.0469,-0.0479,-0.0494,-0.0512,-0.0519,-0.0535,-0.0566,-0.0573,-0.06,-0.0647,-0.0619,-0.0646,-0.0616,-0.0607,-0.0597,-0.0537,-0.0543,-0.0526,-0.0494,-0.0471,-0.0479,-0.056,-0.055,-0.0549,-0.0549,-0.0549,-0.0549,0,-0.0519,-0.0532,-0.0545,-0.0572,-0.0604,-0.0588,-0.0614,-0.0656,-0.0702,-0.07,-0.0722,-0.0667,-0.0648,-0.0592,-0.0496,-0.0444,-0.0475,-0.0402,-0.0383,-0.0416,-0.0515,-0.0506,-0.0458,-0.0458,-0.0458,-0.0458,-0.0458,-0.0458,-0.055,-0.0589,-0.0596,-0.0661,-0.0681,-0.075,-0.0779,-0.0797,-0.0807,-0.078,-0.0741,-0.0693,-0.0508,-0.0327,-0.0248,-0.0274,-0.0276,-0.025,-0.0254,-0.0326,-0.0336,-0.0345,-0.0331,-0.0246,-0.0246,-0.0199,-0.0198,-0.0198]}],[{"header":{"parameterUnit":"m.s-1","parameterCategory":2,"la1":30.2991,"la2":30.254,"lo1":-89.0895,"lo2":-89.0444,"dy":0.0017,"dx":0.0017,"nx":28,"ny":28,"refTime":"2024-07-11T09:00:00:Z","depth":"2","parameterNumber":2,"parameterNumberName":"U-component_of_CURRENTS"},"data":[0,0,0,0,0,0,0,0,0,0,0,0,0,0,0,0,0,0,0,0,0,0,0,0,0,0,0,0,0,0,0,0,0,0,0,0,0,0,0,0,0,0,0,0,0,0,0,0,0,0,0,0,0,0,0,0,0,0,-0.0467,-0.0467,0,-0.0482,-0.0482,-0.0482,-0.0486,-0.0486,-0.0486,-0.0486,-0.0512,-0.0513,-0.0514,0,0,0,0,0,0,0,0,0,0,0,0,0,-0.0508,-0.0507,-0.0467,-0.0467,-0.0467,-0.0482,-0.0482,-0.0482,-0.0486,-0.0486,-0.0486,-0.0486,-0.0512,-0.0513,-0.0514,0,0,0,0,0,0,0,0,0,0,0,0,0,-0.0504,-0.0506,-0.0467,-0.047,-0.047,-0.0482,-0.0482,-0.0482,-0.0486,-0.0486,-0.0486,-0.0485,-0.0512,-0.0513,-0.0514,-0.0529,0,0,-0.0518,-0.0519,0,0,0,0,0,0,0,0,-0.0504,-0.0503,-0.0469,-0.047,-0.047,-0.0481,-0.0506,-0.0498,-0.0486,-0.0482,-0.0486,-0.0485,-0.0502,-0.0504,-0.0509,-0.053,-0.0531,-0.0518,-0.0519,-0.052,-0.052,0,0,0,0,0,0,0,-0.0504,-0.0502,-0.0474,-0.0469,-0.047,-0.0493,-0.0491,-0.0505,-0.0495,-0.0482,-0.0482,-0.0482,-0.0502,-0.0508,-0.051,-0.0532,-0.0518,-0.052,-0.052,-0.0521,-0.058,-0.0581,0,0,0,0,0,0,-0.0496,-0.0502,-0.0474,-0.0475,-0.0485,-0.0492,-0.049,-0.0479,-0.0494,-0.0496,-0.0482,-0.0482,-0.0506,-0.0509,-0.0511,-0.0549,-0.052,-0.0521,-0.0522,-0.0579,-0.058,-0.0581,0,0,0,0,0,0,-0.0497,-0.0493,-0.0473,-0.0489,-0.0487,-0.0491,-0.0478,-0.0479,-0.049,-0.0494,-0.0496,-0.0492,-0.0506,-0.0509,-0.0531,-0.0549,-0.0522,-0.0523,-0.0578,-0.0579,-0.058,-0.0612,0,0,0,0,0,0,-0.0498,-0.0493,-0.049,-0.0487,-0.0486,-0.0484,-0.0478,-0.048,-0.0489,-0.0489,-0.0503,-0.0505,-0.0506,-0.0529,-0.0532,-0.0551,-0.0524,-0.0577,-0.0579,-0.058,-0.061,-0.0614,-0.0618,0,0,0,0,0,-0.0499,-0.0493,-0.0489,-0.0486,-0.0478,-0.0485,-0.0487,-0.049,-0.049,-0.0498,-0.0508,-0.0504,-0.054,-0.0531,-0.0534,-0.0554,-0.0577,-0.0578,-0.058,-0.0609,-0.0614,-0.0618,0,0,0,0,0,0,-0.0518,-0.0493,-0.0488,-0.0477,-0.0483,-0.0485,-0.0493,-0.0495,-0.051,-0.0514,-0.0516,-0.0519,-0.0543,-0.0545,-0.0534,-0.0574,-0.0557,-0.056,-0.0578,-0.0582,-0.0586,-0.059,-0.0525,0,0,0,0,0,-0.0517,-0.0501,-0.0493,-0.0488,-0.049,-0.0494,-0.0499,-0.0503,-0.0511,-0.0518,-0.0529,-0.0541,-0.0553,-0.0564,-0.0575,-0.06,-0.0598,-0.0614,-0.0618,-0.0621,-0.0627,-0.0635,-0.064,-0.0586,-0.0586,-0.0586,0,0,-0.0524,-0.0509,-0.0501,-0.0491,-0.0495,-0.0506,-0.0497,-0.0509,-0.0525,-0.0519,-0.055,-0.0555,-0.0562,-0.0588,-0.0599,-0.0593,-0.0636,-0.0623,-0.0626,-0.063,-0.0637,-0.0642,-0.0647,-0.0588,-0.0587,-0.0587,0,0,-0.0532,-0.0517,-0.0509,-0.0513,-0.0517,-0.0521,-0.0526,-0.0536,-0.0547,-0.0575,-0.0572,-0.0589,-0.0615,-0.0622,-0.0627,-0.0659,-0.0653,-0.0664,-0.0692,-0.0699,-0.0704,-0.0707,-0.0713,-0.0717,-0.0669,-0.0669,-0.0669,0,-0.0547,-0.0527,-0.0514,-0.0517,-0.0525,-0.0529,-0.0542,-0.0556,-0.0576,-0.059,-0.059,-0.0626,-0.0631,-0.0656,-0.0669,-0.0669,-0.0671,-0.0673,-0.0704,-0.0708,-0.0711,-0.0716,-0.072,-0.0671,-0.067,-0.067,-0.067,0,-0.0549,-0.0542,-0.0544,-0.0542,-0.0555,-0.0566,-0.0581,-0.0602,-0.0619,-0.0632,-0.0664,-0.0673,-0.0693,-0.0698,-0.0696,-0.0724,-0.0717,-0.0705,-0.0692,-0.0718,-0.0722,-0.0726,-0.0673,-0.0672,-0.0672,-0.0672,0,0,-0.0563,-0.0545,-0.055,-0.0549,-0.0568,-0.0576,-0.0612,-0.0638,-0.066,-0.0687,-0.0715,-0.0739,-0.0743,-0.0749,-0.0747,-0.0758,-0.0784,-0.0748,-0.0747,-0.0752,-0.0804,-0.0808,-0.0812,-0.0778,-0.0779,-0.0779,-0.0797,0,-0.0573,-0.0565,-0.0567,-0.0585,-0.0584,-0.0608,-0.064,-0.0669,-0.0696,-0.0728,-0.0742,-0.0768,-0.0762,-0.0774,-0.0785,-0.078,-0.0796,-0.0781,-0.0778,-0.0778,-0.0778,-0.0817,-0.0704,-0.0712,-0.0801,-0.0801,-0.0802,0,-0.0578,-0.0567,-0.0572,-0.0587,-0.0595,-0.062,-0.0666,-0.0695,-0.0741,-0.0763,-0.0793,-0.0803,-0.0827,-0.0816,-0.0831,-0.0822,-0.0823,-0.0819,-0.0819,-0.0815,-0.079,-0.0699,-0.0715,-0.0808,-0.0807,-0.0807,-0.0806,0,-0.0571,-0.0578,-0.0576,-0.0582,-0.0603,-0.063,-0.0659,-0.0709,-0.074,-0.0787,-0.0815,-0.0837,-0.0858,-0.0857,-0.0858,-0.0847,-0.0871,-0.0848,-0.0855,-0.0854,-0.0754,-0.0745,-0.0869,-0.0869,-0.0869,-0.0869,-0.0869,0,-0.0568,-0.057,-0.0573,-0.0571,-0.0593,-0.0624,-0.0668,-0.0701,-0.0761,-0.0812,-0.0832,-0.0874,-0.0872,-0.0888,-0.0874,-0.0882,-0.0885,-0.0872,-0.0866,-0.0763,-0.0755,-0.0831,-0.0826,-0.0869,-0.0869,-0.0869,-0.0869,0,-0.0549,-0.055,-0.0544,-0.0567,-0.0582,-0.0599,-0.0669,-0.0708,-0.0763,-0.0832,-0.0852,-0.0906,-0.0936,-0.0928,-0.0932,-0.0912,-0.0906,-0.0909,-0.0793,-0.0774,-0.0878,-0.0875,-0.0914,-0.0915,-0.0915,-0.0915,-0.0916,0,-0.0528,-0.0517,-0.053,-0.0542,-0.0555,-0.0592,-0.0633,-0.0699,-0.0755,-0.0861,-0.0902,-0.0953,-0.1019,-0.1015,-0.097,-0.0948,-0.0941,-0.0818,-0.0781,-0.0897,-0.0886,-0.0882,-0.0878,-0.0654,-0.0652,-0.0651,-0.065,0,-0.0481,-0.0488,-0.0484,-0.0511,-0.0547,-0.0599,-0.0672,-0.0718,-0.0822,-0.0898,-0.1024,-0.1085,-0.1087,-0.1007,-0.0951,-0.092,-0.0808,-0.0789,-0.0931,-0.0673,-0.0656,-0.0644,-0.0648,-0.0636,-0.0637,-0.0638,-0.0639,-0.064,-0.044,-0.0431,-0.0441,-0.0467,-0.053,-0.0633,-0.066,-0.0773,-0.0881,-0.0985,-0.1067,-0.1082,-0.0975,-0.0862,-0.0812,-0.0746,-0.0819,-0.0705,-0.0707,-0.0711,-0.0691,-0.0677,-0.0656,-0.0658,-0.0659,-0.066,-0.0661,0,-0.0366,-0.0384,-0.0405,-0.0453,-0.0518,-0.0583,-0.0697,-0.0713,-0.0836,-0.0935,-0.1027,-0.0837,-0.0783,-0.0686,-0.0581,-0.0569,-0.0553,-0.0511,-0.0441,-0.0455,-0.0467,-0.0432,-0.033,-0.0329,-0.0329,-0.0328,0,0,-0.0325,-0.0314,-0.0329,-0.0412,-0.0481,-0.0555,-0.0611,-0.0665,-0.0701,-0.0748,-0.0733,-0.0774,-0.0686,-0.0488,-0.0436,-0.037,-0.0424,-0.0362,-0.0623,-0.0558,-0.057,-0.0571,-0.0533,0,0,0,0,0]},{"header":{"parameterUnit":"m.s-1","parameterCategory":2,"la1":30.2991,"la2":30.254,"lo1":-89.0895,"lo2":-89.0444,"dy":0.0017,"dx":0.0017,"nx":28,"ny":28,"refTime":"2024-07-11T09:00:00:Z","depth":"2","parameterNumber":3,"parameterNumberName":"V-component_of_CURRENTS"},"data":[0,0,0,0,0,0,0,0,0,0,0,0,0,0,0,0,0,0,0,0,0,0,0,0,0,0,0,0,0,0,0,0,0,0,0,0,0,0,0,0,0,0,0,0,0,0,0,0,0,0,0,0,0,0,0,0,0,0,0.0218,0.0217,0,0.0199,0.0199,0.0199,0.0205,0.0205,0.0205,0.0205,0.0216,0.0216,0.0216,0,0,0,0,0,0,0,0,0,0,0,0,0,0.0233,0.0233,0.0218,0.0217,0.0217,0.0199,0.0199,0.0199,0.0204,0.0205,0.0205,0.0206,0.0216,0.0216,0.0216,0,0,0,0,0,0,0,0,0,0,0,0,0,0.0222,0.0233,0.0218,0.0217,0.0217,0.0199,0.0199,0.0199,0.0204,0.0205,0.0205,0.0206,0.0216,0.0216,0.0216,0.0206,0,0,0.0216,0.0216,0,0,0,0,0,0,0,0,0.0223,0.0222,0.0217,0.0217,0.0217,0.0204,0.0208,0.0202,0.0204,0.021,0.0205,0.0206,0.0214,0.0214,0.021,0.0207,0.0207,0.0216,0.0216,0.0216,0.0216,0,0,0,0,0,0,0,0.0224,0.0222,0.0211,0.0217,0.0217,0.0209,0.0208,0.0207,0.0211,0.021,0.021,0.0206,0.0214,0.021,0.0211,0.0208,0.0216,0.0216,0.0216,0.0216,0.0208,0.0208,0,0,0,0,0,0,0.0225,0.0223,0.0212,0.0211,0.022,0.0208,0.0208,0.0208,0.021,0.021,0.0206,0.0206,0.021,0.0211,0.0211,0.0204,0.0216,0.0216,0.0216,0.0208,0.0208,0.0208,0,0,0,0,0,0,0.0225,0.0224,0.0212,0.0215,0.0213,0.0208,0.0208,0.0208,0.0204,0.0207,0.0208,0.0203,0.021,0.0211,0.0204,0.0204,0.0216,0.0216,0.0208,0.0208,0.0208,0.0187,0,0,0,0,0,0,0.0226,0.0225,0.0225,0.0216,0.0213,0.0196,0.0208,0.0207,0.0201,0.0201,0.0204,0.0206,0.0211,0.0204,0.0204,0.0204,0.0216,0.0209,0.0208,0.0208,0.0188,0.0186,0.0184,0,0,0,0,0,0.0227,0.0224,0.0225,0.0223,0.0214,0.0195,0.0192,0.0191,0.02,0.0191,0.0195,0.0206,0.0202,0.0203,0.0203,0.0204,0.0209,0.0208,0.0208,0.0189,0.0186,0.0184,0,0,0,0,0,0,0.0231,0.0223,0.0225,0.022,0.0206,0.0195,0.0189,0.0188,0.0184,0.0189,0.0196,0.0197,0.0193,0.0199,0.02,0.0201,0.021,0.021,0.0195,0.0193,0.0191,0.0192,0.0216,0,0,0,0,0,0.0232,0.0227,0.0216,0.021,0.0205,0.0197,0.0191,0.0188,0.0182,0.0181,0.0183,0.0188,0.019,0.0192,0.0192,0.0188,0.0205,0.0191,0.019,0.0188,0.0189,0.0224,0.0225,0.0206,0.0206,0.0206,0,0,0.0233,0.0226,0.0225,0.021,0.0203,0.0184,0.0195,0.0182,0.0167,0.0183,0.0168,0.0179,0.0187,0.0183,0.0183,0.0189,0.0198,0.0187,0.0186,0.0188,0.0223,0.0225,0.0227,0.0206,0.0206,0.0206,0,0,0.0222,0.0226,0.0214,0.02,0.0184,0.0176,0.0171,0.0159,0.0156,0.0143,0.0155,0.0165,0.0161,0.017,0.0174,0.0163,0.0186,0.0166,0.0159,0.0192,0.0194,0.0196,0.0205,0.0208,0.0167,0.0167,0.0167,0,0.022,0.0204,0.0206,0.0185,0.017,0.0171,0.0147,0.0141,0.0127,0.0126,0.0136,0.0149,0.0157,0.0161,0.0159,0.016,0.0176,0.0165,0.0191,0.0193,0.0196,0.0204,0.0208,0.0166,0.0166,0.0166,0.0167,0,0.0195,0.0181,0.0171,0.0146,0.0131,0.0111,0.01,0.0091,0.0095,0.0095,0.0103,0.012,0.0134,0.0139,0.0144,0.0164,0.0166,0.0183,0.0197,0.0197,0.0205,0.0209,0.0165,0.0165,0.0165,0.0166,0,0,0.0187,0.0159,0.0153,0.0133,0.0108,0.009,0.0071,0.0053,0.0048,0.0057,0.006,0.0077,0.0104,0.0111,0.013,0.0159,0.0185,0.0178,0.018,0.0187,0.0245,0.0219,0.0221,0.0212,0.0213,0.0214,0.0238,0,0.0161,0.0119,0.0111,0.0066,0.0042,0.0037,0.0017,0.0007,0.0013,0.0017,0.0054,0.0066,0.0088,0.0106,0.0137,0.0176,0.0198,0.0176,0.0244,0.0245,0.0224,0.0226,0.0245,0.0266,0.0242,0.0243,0.0243,0,0.0129,0.0105,0.0062,0.0024,0.0014,-0.0008,-0.0031,-0.0047,-0.0035,-0.0023,0.0009,0.004,0.008,0.0107,0.0177,0.0163,0.02,0.0232,0.0234,0.0222,0.0228,0.0266,0.0275,0.025,0.025,0.0249,0.0249,0,0.0109,0.0065,0.003,0.0015,-0.0022,-0.0036,-0.0051,-0.0055,-0.0069,-0.0036,-0.0027,0.0027,0.0061,0.0122,0.0181,0.0188,0.0256,0.0275,0.0281,0.0278,0.0313,0.0312,0.0325,0.0325,0.0325,0.0325,0.0325,0,0.0075,0.0044,0.002,-0.0002,-0.0042,-0.0053,-0.0082,-0.0086,-0.0085,-0.0097,-0.004,-0.0026,0.0072,0.0119,0.0175,0.0232,0.0253,0.0277,0.0288,0.0303,0.0301,0.0307,0.0304,0.0326,0.0326,0.0326,0.0326,0,0.0053,0.0035,-0.0008,-0.0042,-0.0054,-0.0079,-0.0113,-0.0135,-0.0119,-0.0127,-0.0115,-0.0057,0.0011,0.0086,0.0181,0.0219,0.0279,0.0291,0.0285,0.0294,0.028,0.0276,0.0309,0.0309,0.0308,0.0308,0.0307,0,0.0045,0.0018,-0.0033,-0.006,-0.0077,-0.0109,-0.0142,-0.0153,-0.0178,-0.0152,-0.0165,-0.0092,-0.004,0.0076,0.0182,0.0273,0.0257,0.0299,0.0316,0.0273,0.0281,0.0278,0.0274,0.0352,0.0352,0.0352,0.0352,0,0.0026,0.0004,-0.0033,-0.0093,-0.0134,-0.0189,-0.023,-0.0256,-0.0266,-0.0248,-0.0224,-0.0166,-0.0021,0.0105,0.0214,0.0262,0.0288,0.0299,0.0281,0.0341,0.0312,0.0319,0.0316,0.0352,0.0352,0.0352,0.0352,0.0352,0.0025,-0.0015,-0.0072,-0.0132,-0.0196,-0.028,-0.0332,-0.0356,-0.0385,-0.037,-0.0277,-0.0178,-0.0053,0.0125,0.0223,0.0312,0.0317,0.0319,0.032,0.0321,0.0309,0.0281,0.0311,0.0311,0.031,0.031,0.031,0,0.0036,-0.0038,-0.0106,-0.0211,-0.0314,-0.0324,-0.0411,-0.0463,-0.0497,-0.0408,-0.0334,-0.0179,-0.0022,0.0097,0.0282,0.0368,0.0389,0.0334,0.0361,0.0361,0.036,0.0352,0.0365,0.0365,0.0365,0.0365,0,0,0.0041,-0.0039,-0.0099,-0.0293,-0.0379,-0.0517,-0.0568,-0.0608,-0.0582,-0.0483,-0.037,-0.0243,-0.0053,0.0048,0.0188,0.0291,0.0286,0.0283,0.0235,0.0252,0.0249,0.0353,0.0339,0,0,0,0,0]}],[{"header":{"parameterUnit":"m.s-1","parameterCategory":2,"la1":30.2991,"la2":30.254,"lo1":-89.0895,"lo2":-89.0444,"dy":0.0017,"dx":0.0017,"nx":28,"ny":28,"refTime":"2024-07-11T09:00:00:Z","depth":"4","parameterNumber":2,"parameterNumberName":"U-component_of_CURRENTS"},"data":[0,0,0,0,0,0,0,0,0,0,0,0,0,0,0,0,0,0,0,0,0,0,0,0,0,0,0,0,0,0,0,0,0,0,0,0,0,0,0,0,0,0,0,0,0,0,0,0,0,0,0,0,0,0,0,0,0,0,-0.0517,-0.0518,0,-0.0546,-0.0546,-0.0546,-0.0567,-0.0567,-0.0568,-0.0568,-0.0647,-0.0649,-0.0651,0,0,0,0,0,0,0,0,0,0,0,0,0,-0.0486,-0.0487,-0.0517,-0.0518,-0.0518,-0.0546,-0.0546,-0.0546,-0.0567,-0.0567,-0.0568,-0.0568,-0.0646,-0.0649,-0.0651,0,0,0,0,0,0,0,0,0,0,0,0,0,-0.0504,-0.0487,-0.0517,-0.0533,-0.0535,-0.0546,-0.0546,-0.0546,-0.0567,-0.0567,-0.0568,-0.0568,-0.0646,-0.0648,-0.0651,-0.0657,0,0,-0.0659,-0.066,0,0,0,0,0,0,0,0,-0.0503,-0.0505,-0.053,-0.0532,-0.0534,-0.0555,-0.0564,-0.0587,-0.0567,-0.0553,-0.0568,-0.0569,-0.0622,-0.0626,-0.0627,-0.0661,-0.0664,-0.0659,-0.0661,-0.0662,-0.0663,0,0,0,0,0,0,0,-0.0502,-0.0504,-0.0527,-0.0531,-0.0533,-0.0541,-0.0544,-0.0568,-0.0583,-0.0554,-0.0556,-0.0562,-0.0623,-0.0625,-0.063,-0.0665,-0.0659,-0.0662,-0.0663,-0.0664,-0.0781,-0.0782,0,0,0,0,0,0,-0.0501,-0.0503,-0.0526,-0.0528,-0.0522,-0.0542,-0.0545,-0.0546,-0.0582,-0.0588,-0.0562,-0.0563,-0.062,-0.0626,-0.0632,-0.0732,-0.0662,-0.0665,-0.0666,-0.078,-0.0781,-0.0783,0,0,0,0,0,0,-0.05,-0.0503,-0.0525,-0.0518,-0.0521,-0.0542,-0.0543,-0.0547,-0.0567,-0.0588,-0.0595,-0.0581,-0.062,-0.0629,-0.0664,-0.0732,-0.0666,-0.0668,-0.0778,-0.078,-0.0782,-0.0873,0,0,0,0,0,0,-0.0499,-0.0502,-0.0507,-0.0517,-0.0522,-0.0538,-0.0543,-0.0547,-0.057,-0.0572,-0.0607,-0.0613,-0.0621,-0.066,-0.0667,-0.0734,-0.067,-0.0776,-0.0779,-0.0781,-0.0869,-0.0878,-0.0887,0,0,0,0,0,-0.0498,-0.0503,-0.0506,-0.051,-0.0526,-0.0538,-0.0541,-0.0556,-0.0571,-0.0577,-0.0602,-0.0613,-0.0684,-0.0663,-0.0671,-0.0741,-0.0774,-0.0778,-0.0781,-0.0864,-0.0877,-0.0887,0,0,0,0,0,0,-0.0489,-0.0506,-0.051,-0.0519,-0.0531,-0.0543,-0.0552,-0.0567,-0.0591,-0.0602,-0.0621,-0.0629,-0.0683,-0.0691,-0.0667,-0.0779,-0.0736,-0.0741,-0.0797,-0.0808,-0.0817,-0.0832,-0.0673,0,0,0,0,0,-0.0489,-0.05,-0.0512,-0.052,-0.0526,-0.0543,-0.0553,-0.0567,-0.0588,-0.0599,-0.0628,-0.0663,-0.07,-0.0735,-0.075,-0.0815,-0.0781,-0.0866,-0.0875,-0.0883,-0.0899,-0.0874,-0.0882,-0.0794,-0.0794,-0.0794,0,0,-0.0487,-0.0499,-0.0505,-0.052,-0.0529,-0.0538,-0.055,-0.0571,-0.0595,-0.0605,-0.0653,-0.0684,-0.0715,-0.0779,-0.0809,-0.0803,-0.089,-0.0887,-0.0895,-0.0906,-0.0878,-0.0886,-0.0894,-0.0796,-0.0796,-0.0795,0,0,-0.049,-0.0499,-0.0509,-0.0519,-0.0541,-0.0548,-0.056,-0.0587,-0.0615,-0.0663,-0.0681,-0.0746,-0.0802,-0.0846,-0.0874,-0.0943,-0.0921,-0.0968,-0.1057,-0.1032,-0.1039,-0.1044,-0.1007,-0.1008,-0.0996,-0.0996,-0.0996,0,-0.0484,-0.05,-0.0513,-0.0524,-0.0534,-0.0555,-0.0565,-0.0594,-0.0637,-0.0677,-0.0687,-0.0801,-0.0833,-0.0926,-0.0976,-0.0968,-0.0944,-0.1015,-0.1044,-0.1049,-0.1053,-0.1013,-0.1013,-0.1001,-0.1001,-0.1,-0.1,0,-0.0491,-0.0507,-0.0513,-0.0531,-0.0542,-0.0556,-0.0589,-0.0628,-0.0675,-0.0719,-0.082,-0.0872,-0.0954,-0.0989,-0.1022,-0.1102,-0.1069,-0.1037,-0.1015,-0.1067,-0.1021,-0.102,-0.1008,-0.1006,-0.1005,-0.1004,0,0,-0.0455,-0.0509,-0.0507,-0.0525,-0.0549,-0.0558,-0.0607,-0.0662,-0.0732,-0.0795,-0.0879,-0.0993,-0.1057,-0.1094,-0.1147,-0.1169,-0.1196,-0.1154,-0.115,-0.1116,-0.1139,-0.1019,-0.1005,-0.1174,-0.1174,-0.1175,-0.1093,0,-0.0451,-0.0481,-0.0506,-0.0527,-0.0541,-0.058,-0.0632,-0.0694,-0.0773,-0.0859,-0.0942,-0.1034,-0.1085,-0.1161,-0.1196,-0.1178,-0.12,-0.1221,-0.1095,-0.1091,-0.0977,-0.1002,-0.1177,-0.1092,-0.1091,-0.1091,-0.1091,0,-0.0432,-0.0462,-0.0487,-0.0553,-0.0563,-0.0581,-0.0674,-0.074,-0.0863,-0.0941,-0.1054,-0.1106,-0.1192,-0.1206,-0.1217,-0.1231,-0.1219,-0.1194,-0.1189,-0.1046,-0.0969,-0.1029,-0.1088,-0.1088,-0.1088,-0.1088,-0.1089,0,-0.0387,-0.044,-0.0464,-0.0477,-0.0554,-0.0586,-0.0643,-0.0767,-0.0834,-0.0998,-0.1051,-0.1156,-0.1189,-0.1192,-0.1178,-0.1205,-0.1129,-0.1132,-0.1007,-0.0997,-0.109,-0.1084,-0.1134,-0.1134,-0.1134,-0.1134,-0.1134,0,-0.0358,-0.0375,-0.045,-0.0458,-0.0506,-0.0582,-0.0655,-0.0766,-0.0889,-0.0938,-0.1102,-0.1112,-0.1189,-0.1156,-0.1157,-0.1057,-0.11,-0.1023,-0.0971,-0.1129,-0.1129,-0.1087,-0.1083,-0.1131,-0.1132,-0.1132,-0.1133,0,-0.0298,-0.0347,-0.0376,-0.0458,-0.048,-0.0524,-0.0609,-0.068,-0.0835,-0.0891,-0.093,-0.1048,-0.101,-0.1043,-0.1008,-0.0991,-0.0924,-0.0884,-0.1035,-0.0991,-0.0823,-0.0825,-0.0743,-0.0739,-0.0734,-0.0731,-0.0728,0,-0.0272,-0.0282,-0.0348,-0.0364,-0.0393,-0.0452,-0.0493,-0.0637,-0.0684,-0.0796,-0.079,-0.0819,-0.0865,-0.074,-0.0782,-0.0756,-0.0763,-0.0749,-0.0837,-0.0827,-0.0785,-0.0793,-0.08,-0.0722,-0.072,-0.0719,-0.0718,0,-0.0215,-0.0237,-0.0267,-0.0305,-0.0327,-0.0351,-0.0405,-0.0419,-0.0555,-0.0648,-0.0648,-0.0665,-0.0616,-0.0625,-0.0624,-0.0601,-0.077,-0.0707,-0.0717,-0.08,-0.08,-0.0763,-0.0775,-0.0704,-0.0706,-0.0707,-0.0708,0,-0.0161,-0.0168,-0.0207,-0.024,-0.0266,-0.027,-0.03,-0.0321,-0.0377,-0.0508,-0.0439,-0.0502,-0.0541,-0.0533,-0.0491,-0.0498,-0.0519,-0.055,-0.0569,-0.0585,-0.0577,-0.0556,-0.0339,0,0,0,0,0,-0.0101,-0.0113,-0.0142,-0.0168,-0.0195,-0.0211,-0.0255,-0.0289,-0.0348,-0.033,-0.0411,-0.0366,-0.0373,-0.0388,-0.0367,-0.041,-0.0515,-0.0384,-0.0559,-0.0625,-0.0641,-0.065,0,0,0,0,0,0,-0.0065,-0.0079,-0.0119,-0.0109,-0.0114,-0.0127,-0.0157,-0.0199,-0.02,-0.0267,-0.0272,-0.0322,-0.0332,-0.0366,-0.0348,-0.0353,-0.0454,-0.0408,-0.0407,-0.0615,-0.063,-0.0644,-0.0658,0,0,0,0,0]},{"header":{"parameterUnit":"m.s-1","parameterCategory":2,"la1":30.2991,"la2":30.254,"lo1":-89.0895,"lo2":-89.0444,"dy":0.0017,"dx":0.0017,"nx":28,"ny":28,"refTime":"2024-07-11T09:00:00:Z","depth":"4","parameterNumber":3,"parameterNumberName":"V-component_of_CURRENTS"},"data":[0,0,0,0,0,0,0,0,0,0,0,0,0,0,0,0,0,0,0,0,0,0,0,0,0,0,0,0,0,0,0,0,0,0,0,0,0,0,0,0,0,0,0,0,0,0,0,0,0,0,0,0,0,0,0,0,0,0,-0.0073,-0.0073,0,-0.0093,-0.0093,-0.0094,-0.0087,-0.0086,-0.0086,-0.0085,-0.0092,-0.0092,-0.0093,0,0,0,0,0,0,0,0,0,0,0,0,0,-0.0042,-0.0043,-0.0073,-0.0073,-0.0073,-0.0093,-0.0093,-0.0094,-0.0087,-0.0086,-0.0085,-0.0085,-0.0091,-0.0092,-0.0093,0,0,0,0,0,0,0,0,0,0,0,0,0,-0.0061,-0.0043,-0.0073,-0.007,-0.007,-0.0093,-0.0093,-0.0094,-0.0087,-0.0086,-0.0085,-0.0084,-0.0091,-0.0092,-0.0093,-0.0122,0,0,-0.0097,-0.0098,0,0,0,0,0,0,0,0,-0.006,-0.0062,-0.007,-0.007,-0.007,-0.0084,-0.0085,-0.0102,-0.0088,-0.0084,-0.0085,-0.0084,-0.0087,-0.0088,-0.0099,-0.0122,-0.0122,-0.0097,-0.0098,-0.0099,-0.0099,0,0,0,0,0,0,0,-0.0058,-0.0061,-0.0084,-0.007,-0.007,-0.0072,-0.0074,-0.0088,-0.0093,-0.0084,-0.0083,-0.0081,-0.0087,-0.0097,-0.0099,-0.0123,-0.0097,-0.0098,-0.0099,-0.01,-0.0168,-0.0169,0,0,0,0,0,0,-0.0051,-0.006,-0.0083,-0.0084,-0.0059,-0.0073,-0.0075,-0.0083,-0.0093,-0.0093,-0.0082,-0.008,-0.0096,-0.0097,-0.0099,-0.0122,-0.0099,-0.01,-0.01,-0.0167,-0.0168,-0.0169,0,0,0,0,0,0,-0.005,-0.0053,-0.0082,-0.0069,-0.0073,-0.0074,-0.0083,-0.0084,-0.009,-0.0091,-0.0091,-0.0086,-0.0095,-0.0097,-0.0118,-0.0122,-0.01,-0.0101,-0.0165,-0.0167,-0.0168,-0.0175,0,0,0,0,0,0,-0.005,-0.0053,-0.0059,-0.0069,-0.0073,-0.0097,-0.0084,-0.0085,-0.0089,-0.0088,-0.0095,-0.0095,-0.0094,-0.0116,-0.0119,-0.0124,-0.0102,-0.0164,-0.0166,-0.0168,-0.0174,-0.0177,-0.018,0,0,0,0,0,-0.0049,-0.0061,-0.006,-0.0062,-0.0081,-0.0098,-0.0101,-0.0099,-0.009,-0.01,-0.0107,-0.0094,-0.013,-0.0118,-0.0121,-0.0126,-0.0163,-0.0165,-0.0168,-0.0172,-0.0176,-0.018,0,0,0,0,0,0,-0.0049,-0.0062,-0.006,-0.0075,-0.0085,-0.0095,-0.0102,-0.0102,-0.0116,-0.0113,-0.0112,-0.0113,-0.0139,-0.0136,-0.0122,-0.0154,-0.0143,-0.0147,-0.0146,-0.015,-0.0153,-0.0123,-0.0103,0,0,0,0,0,-0.0052,-0.0066,-0.0075,-0.0087,-0.0091,-0.0098,-0.0104,-0.0105,-0.0116,-0.0121,-0.0127,-0.0136,-0.0154,-0.0152,-0.0174,-0.0187,-0.0187,-0.0193,-0.0196,-0.0198,-0.0178,-0.0195,-0.0197,-0.0177,-0.0177,-0.0177,0,0,-0.0053,-0.0062,-0.0069,-0.0087,-0.0094,-0.0115,-0.01,-0.0112,-0.0133,-0.012,-0.015,-0.0156,-0.0165,-0.0187,-0.0195,-0.0179,-0.021,-0.0201,-0.0203,-0.0181,-0.0198,-0.0199,-0.0201,-0.0179,-0.0178,-0.0178,0,0,-0.0066,-0.0073,-0.0089,-0.0102,-0.0114,-0.0125,-0.0128,-0.0143,-0.0152,-0.018,-0.0179,-0.0188,-0.0212,-0.0216,-0.0221,-0.0255,-0.0237,-0.0255,-0.0228,-0.0246,-0.0247,-0.0248,-0.0269,-0.0271,-0.024,-0.024,-0.024,0,-0.0065,-0.009,-0.0096,-0.0116,-0.0129,-0.0131,-0.0154,-0.0171,-0.0192,-0.0204,-0.0192,-0.0224,-0.023,-0.0247,-0.024,-0.0261,-0.0257,-0.0211,-0.0248,-0.0249,-0.0249,-0.027,-0.0273,-0.0241,-0.0241,-0.0241,-0.0241,0,-0.0092,-0.0112,-0.0123,-0.0153,-0.0171,-0.0189,-0.021,-0.0232,-0.0238,-0.0249,-0.0271,-0.0271,-0.0272,-0.0282,-0.0259,-0.0262,-0.0255,-0.0262,-0.0232,-0.0251,-0.0273,-0.0276,-0.0242,-0.0242,-0.0242,-0.0241,0,0,-0.0081,-0.0133,-0.0134,-0.0156,-0.0191,-0.0208,-0.0249,-0.0284,-0.0307,-0.0312,-0.0329,-0.0332,-0.0297,-0.0297,-0.0275,-0.0266,-0.027,-0.0236,-0.0237,-0.0245,-0.0296,-0.0242,-0.024,-0.0266,-0.0266,-0.0267,-0.0315,0,-0.0097,-0.0144,-0.0167,-0.0213,-0.0239,-0.0263,-0.0304,-0.0335,-0.0352,-0.0373,-0.0357,-0.0361,-0.0314,-0.0289,-0.0275,-0.0279,-0.0272,-0.0255,-0.0285,-0.0286,-0.0226,-0.0239,-0.0267,-0.0317,-0.0318,-0.0318,-0.0318,0,-0.0109,-0.0144,-0.019,-0.0251,-0.0264,-0.0294,-0.035,-0.0383,-0.0416,-0.0417,-0.0397,-0.0378,-0.0348,-0.0309,-0.0303,-0.0283,-0.0269,-0.0274,-0.0277,-0.0216,-0.0235,-0.0292,-0.0323,-0.0323,-0.0322,-0.0322,-0.0322,0,-0.0094,-0.0156,-0.0195,-0.0213,-0.0284,-0.0311,-0.0346,-0.0394,-0.0426,-0.042,-0.0425,-0.0398,-0.0377,-0.0357,-0.0322,-0.0305,-0.0331,-0.0334,-0.0285,-0.0283,-0.0313,-0.0312,-0.0331,-0.0331,-0.0331,-0.0331,-0.0331,0,-0.0099,-0.0126,-0.0191,-0.0211,-0.0266,-0.0308,-0.0359,-0.0387,-0.0426,-0.0454,-0.0419,-0.0416,-0.0377,-0.0377,-0.0347,-0.0315,-0.0356,-0.0271,-0.0284,-0.032,-0.0318,-0.0316,-0.0314,-0.0333,-0.0332,-0.0332,-0.0332,0,-0.0074,-0.0114,-0.0162,-0.0235,-0.0258,-0.0292,-0.0366,-0.0405,-0.0428,-0.0457,-0.0443,-0.0437,-0.0412,-0.0397,-0.0387,-0.0349,-0.0336,-0.0317,-0.036,-0.0378,-0.0273,-0.0271,-0.0272,-0.0271,-0.0269,-0.0268,-0.0267,0,-0.0066,-0.0089,-0.0164,-0.0198,-0.023,-0.0286,-0.0334,-0.0388,-0.0423,-0.0466,-0.0477,-0.046,-0.0437,-0.0407,-0.0373,-0.0337,-0.0314,-0.0314,-0.0266,-0.025,-0.0264,-0.0264,-0.0264,-0.0265,-0.0264,-0.0264,-0.0264,0,-0.0056,-0.0078,-0.0123,-0.019,-0.0241,-0.0303,-0.0364,-0.0394,-0.0451,-0.0468,-0.0482,-0.0449,-0.0427,-0.0383,-0.0348,-0.0321,-0.0318,-0.0299,-0.0301,-0.0256,-0.0241,-0.0256,-0.0258,-0.0259,-0.0259,-0.026,-0.026,0,-0.0041,-0.0073,-0.0133,-0.0191,-0.0255,-0.0319,-0.035,-0.04,-0.0442,-0.0485,-0.0484,-0.0461,-0.0449,-0.0376,-0.0353,-0.0306,-0.028,-0.0259,-0.0263,-0.0268,-0.0229,-0.0208,-0.0219,0,0,0,0,0,-0.0031,-0.0078,-0.0135,-0.021,-0.0268,-0.0307,-0.0382,-0.0412,-0.0458,-0.0461,-0.0476,-0.0446,-0.0382,-0.0367,-0.0307,-0.0317,-0.0274,-0.0244,-0.0253,-0.0231,-0.0237,-0.0184,0,0,0,0,0,0,-0.0034,-0.0087,-0.0134,-0.0211,-0.0256,-0.0328,-0.0379,-0.0409,-0.0417,-0.0442,-0.0413,-0.04,-0.0347,-0.0401,-0.0292,-0.028,-0.0271,-0.022,-0.0218,-0.0228,-0.0233,-0.0238,-0.0186,0,0,0,0,0]}]]